Location: Dumpton Point
(51.3500°N, 1.4433°E)
Time: 02:02:13
(UTC+00:00)

Vanguard 1 - Visible Passes

Search period start: 06 December 2023 00:00
Search period end: 16 December 2023 00:00
Orbit: 651 x 3828 km, 34.3° (Epoch: 01 December)

Date Brightness Start Highest point End Pass type
(mag) Time Alt. Az. Time Alt. Az. Time Alt. Az.
06 Dec 14.0 00:00:22 10° W 00:03:17 14° W 00:03:17 14° W visible
06 Dec 13.2 17:14:39 10° SSW 17:27:51 37° SSE 17:44:28 14° E visible
06 Dec 13.0 19:33:41 10° WSW 19:50:37 47° S 19:57:07 41° SE visible
06 Dec 13.3 21:55:45 10° W 22:09:47 37° SW 22:09:47 37° SW visible
07 Dec 14.2 00:22:15 10° W 00:22:26 10° W 00:22:26 10° W visible
07 Dec 13.1 17:34:19 10° SW 17:47:53 40° SSE 18:03:38 17° ESE visible
07 Dec 13.0 19:53:56 10° WSW 20:11:01 47° S 20:16:18 42° SSE visible
07 Dec 13.5 22:16:31 10° W 22:28:57 32° SW 22:28:57 32° SW visible
08 Dec 13.0 17:54:09 10° SW 18:08:03 43° SSE 18:22:51 20° ESE visible
08 Dec 13.1 20:14:17 10° WSW 20:31:23 45° S 20:35:29 42° SSE visible
08 Dec 13.6 22:37:29 10° W 22:48:09 27° WSW 22:48:09 27° WSW visible
09 Dec 13.0 18:14:08 10° SW 18:28:17 45° S 18:42:05 23° ESE visible
09 Dec 13.1 20:34:43 10° WSW 20:51:44 42° SSW 20:54:45 41° S visible
09 Dec 13.8 22:58:45 10° W 23:07:25 22° WSW 23:07:25 22° WSW visible
10 Dec 13.1 16:15:58 10° SSW 16:26:45 33° SSE 16:43:13 10° E visible
10 Dec 13.0 18:34:13 10° WSW 18:48:36 45° S 19:01:23 25° SE visible
10 Dec 13.2 20:55:17 10° W 21:12:02 39° SSW 21:14:03 38° SSW visible
10 Dec 13.9 23:20:32 10° W 23:26:43 17° WSW 23:26:43 17° WSW visible
11 Dec 13.0 16:35:36 10° SW 16:46:43 37° SSE 17:04:06 10° E visible
11 Dec 13.0 18:54:26 10° WSW 19:08:57 45° S 19:20:45 27° SE visible
11 Dec 13.3 21:15:59 10° W 21:32:16 35° SSW 21:33:26 35° SSW visible
11 Dec 14.1 23:43:18 10° WSW 23:46:07 13° WSW 23:46:07 13° WSW visible
12 Dec 13.0 16:55:24 10° SW 17:06:48 40° SSE 17:24:50 10° ESE visible
12 Dec 13.1 19:14:43 10° WSW 19:29:18 43° S 19:40:13 28° SE visible
12 Dec 13.5 21:36:53 10° W 21:52:25 30° SSW 21:52:54 30° SSW visible
13 Dec 12.9 17:15:20 10° SW 17:26:59 41° S 17:45:27 10° ESE visible
13 Dec 13.2 19:35:06 10° WSW 19:49:39 40° SSW 19:59:47 28° SSE visible
13 Dec 13.6 21:58:06 10° W 22:12:28 25° SW 22:12:28 25° SW visible
14 Dec 12.9 17:35:24 10° WSW 17:47:14 42° S 18:05:57 10° ESE visible
14 Dec 13.3 19:55:37 10° WSW 20:09:59 37° SSW 20:19:28 27° SSE visible
14 Dec 13.8 22:19:52 10° W 22:32:11 20° SW 22:32:11 20° SW visible
15 Dec 13.0 17:55:33 10° WSW 18:07:32 41° S 18:26:18 10° ESE visible
15 Dec 13.4 20:16:16 10° W 20:30:16 33° SSW 20:39:19 25° S visible
15 Dec 14.0 22:42:41 10° WSW 22:52:03 15° SW 22:52:03 15° SW visible
